Date String (YYYY-MM-DD hh:mm:ss) UTC,Instrument flags,Ambient pressure (hPa),Sample flow (lpm),Bypass flow (lpm),Sample temperature (°C),Ambient temperature (°C),ASC tube jacket temperature (°C),LED temperature (°C),Box temperature (°C),Sample RH (%),Span deviation,Mass concentration (μg/m³),Mass concentration (μg/m³),Mass concentration (μg/m³)
DateTimeUTC,F1_M11,P_M11,Q1_M11,Q2_M11,T1_M11,T2_M11,T3_M11,T4_M11,T5_M11,U1_M11,ZSPAN_M11,X0_M11,X2_M11,X1_M11
2022-12-31 02:00:00,,0815.5,5.00,0.00,21.9,20.2,00.0,30.8,23.4,11.2,0000.0,0007.29,0003.13,0002.80
2022-12-31 02:01:00,,0815.2,5.02,0.00,21.8,19.9,00.0,30.8,23.3,11.2,0000.0,0008.05,0003.58,0003.36
2022-12-31 02:02:00,,0815.2,5.01,0.00,21.7,19.8,00.0,30.8,23.2,11.1,0000.0,0008.74,0004.02,0003.76
2022-12-31 02:03:00,,0815.4,4.97,0.00,21.7,19.6,00.0,30.8,23.1,11.1,0000.0,0009.26,0004.42,0004.15
2022-12-31 02:04:00,,0815.3,5.01,0.00,21.6,19.5,00.0,30.7,23.1,11.3,0000.0,0009.74,0004.80,0004.52
2022-12-31 02:05:00,,0815.2,4.98,0.00,21.6,19.5,00.0,30.7,23.0,11.5,0000.0,0009.45,0005.11,0004.81
2022-12-31 02:06:00,,0815.1,5.03,0.00,21.5,19.4,00.0,30.7,23.0,11.7,0000.0,0009.35,0005.38,0005.07
2022-12-31 02:07:00,,0815.2,4.96,0.00,21.4,19.3,00.0,30.6,22.9,11.8,0000.0,0009.68,0005.64,0005.32
2022-12-31 02:08:00,,0815.1,4.97,0.00,21.4,19.3,00.0,30.6,22.8,12.0,0000.0,0010.00,0005.85,0005.52
2022-12-31 02:09:00,,0815.4,5.01,0.00,21.4,19.3,00.0,30.6,22.8,12.1,0000.0,0010.23,0006.07,0005.74
2022-12-31 02:10:00,,0815.3,5.03,0.00,21.3,19.6,00.0,30.5,22.9,11.9,0000.0,0010.15,0006.08,0005.77
2022-12-31 02:11:00,,0815.3,5.01,0.00,21.4,20.9,00.0,30.4,23.2,11.5,0000.0,0009.70,0005.93,0005.63
2022-12-31 02:12:00,,0815.5,4.97,0.00,21.6,22.0,00.0,30.4,23.5,11.7,0000.0,0009.40,0005.78,0005.49
2022-12-31 02:13:00,,0815.3,4.99,0.00,21.7,22.2,00.0,30.5,23.7,11.6,0000.0,0009.05,0005.63,0005.33
2022-12-31 02:14:00,,0815.1,5.03,0.00,21.7,21.6,00.0,30.5,23.6,11.4,0000.0,0008.89,0005.51,0005.21
2022-12-31 02:15:00,,0815.2,5.01,0.00,21.7,20.9,00.0,30.6,23.4,11.4,0000.0,0008.67,0005.34,0005.04
2022-12-31 02:16:00,,0815.2,4.99,0.00,21.6,20.4,00.0,30.6,23.2,11.4,0000.0,0008.35,0005.13,0004.82
2022-12-31 02:17:00,,0815.2,4.97,0.00,21.6,20.0,00.0,30.5,23.1,11.7,0000.0,0008.07,0004.92,0004.62
2022-12-31 02:18:00,,0815.3,5.03,0.00,21.5,19.7,00.0,30.5,22.9,11.8,0000.0,0007.88,0004.75,0004.45
2022-12-31 02:19:00,,0815.3,5.01,0.00,21.4,19.5,00.0,30.5,22.9,11.5,0000.0,0007.66,0004.62,0004.33
2022-12-31 02:20:00,,0815.2,4.97,0.00,21.4,19.4,00.0,30.5,22.8,11.5,0000.0,0007.59,0004.52,0004.21
2022-12-31 02:21:00,,0815.3,4.97,0.00,21.3,19.5,00.0,30.4,22.8,11.5,0000.0,0007.62,0004.41,0004.11
2022-12-31 02:22:00,,0815.5,4.98,0.00,21.3,19.4,00.0,30.4,22.8,11.4,0000.0,0007.61,0004.34,0004.02
2022-12-31 02:23:00,,0815.4,5.03,0.00,21.2,19.3,00.0,30.4,22.7,11.2,0000.0,0007.52,0004.26,0003.95
2022-12-31 02:24:00,,0815.2,5.03,0.00,21.2,19.2,00.0,30.4,22.6,11.3,0000.0,0007.40,0004.19,0003.89
2022-12-31 02:25:00,,0815.3,4.98,0.00,21.1,19.1,00.0,30.3,22.6,11.3,0000.0,0007.04,0004.02,0003.75
2022-12-31 02:26:00,,0815.3,4.98,0.00,21.1,19.0,00.0,30.3,22.5,11.5,0000.0,0006.66,0003.87,0003.62
2022-12-31 02:27:00,,0815.4,4.98,0.00,21.0,19.2,00.0,30.2,22.5,11.5,0000.0,0006.19,0003.70,0003.48
2022-12-31 02:28:00,,0815.3,5.03,0.00,21.1,20.4,00.0,30.2,22.8,11.4,0000.0,0006.12,0003.56,0003.36
2022-12-31 02:29:00,,0815.1,5.03,0.00,21.3,21.6,00.0,30.1,23.2,11.2,0000.0,0005.90,0003.43,0003.23
2022-12-31 02:30:00,,0815.4,4.99,0.00,21.4,21.9,00.0,30.2,23.4,11.2,0000.0,0005.37,0003.24,0003.02
2022-12-31 02:31:00,,0815.3,4.98,0.00,21.4,21.3,00.0,30.3,23.2,11.4,0000.0,0004.95,0003.05,0002.76
2022-12-31 02:32:00,,0815.3,5.02,0.00,21.4,20.7,00.0,30.3,23.1,11.6,0000.0,0004.42,0002.82,0002.55
2022-12-31 02:33:00,,0815.2,5.02,0.00,21.4,20.3,00.0,30.3,23.0,11.3,0000.0,0003.90,0002.58,0002.36
2022-12-31 02:34:00,,0815.1,4.99,0.00,21.3,20.0,00.0,30.3,22.9,10.8,0000.0,0003.75,0002.45,0002.24
2022-12-31 02:35:00,,0815.1,4.98,0.00,21.3,20.0,00.0,30.3,22.9,10.7,0000.0,0003.58,0002.32,0002.11
2022-12-31 02:36:00,,0815.3,4.99,0.00,21.3,20.0,00.0,30.3,23.0,10.6,0000.0,0003.50,0002.26,0002.07
2022-12-31 02:37:00,,0815.3,5.02,0.00,21.4,20.1,00.0,30.3,23.0,10.7,0000.0,0003.54,0002.27,0002.07
2022-12-31 02:38:00,,0815.3,4.98,0.00,21.4,20.2,00.0,30.3,23.1,11.0,0000.0,0004.02,0002.24,0002.06
2022-12-31 02:39:00,,0815.4,5.02,0.00,21.4,20.2,00.0,30.3,23.0,11.4,0000.0,0004.31,0002.25,0002.07
2022-12-31 02:40:00,,0815.3,4.98,0.00,21.4,20.0,00.0,30.3,22.9,10.7,0000.0,0004.20,0002.33,0002.12
2022-12-31 02:41:00,,0815.3,4.96,0.00,21.3,19.8,00.0,30.3,22.8,10.7,0000.0,0004.32,0002.42,0002.20
2022-12-31 02:42:00,,0815.2,5.01,0.00,21.3,19.7,00.0,30.3,22.8,10.7,0000.0,0004.39,0002.47,0002.26
2022-12-31 02:43:00,,0815.5,5.04,0.00,21.3,19.6,00.0,30.3,22.8,10.7,0000.0,0004.35,0002.43,0002.21
2022-12-31 02:44:00,,0815.3,4.99,0.00,21.2,19.6,00.0,30.2,22.8,10.6,0000.0,0004.30,0002.38,0002.14
2022-12-31 02:45:00,,0815.5,4.97,0.00,21.2,19.7,00.0,30.2,22.8,10.7,0000.0,0004.06,0002.24,0002.03
2022-12-31 02:46:00,,0815.2,5.03,0.00,21.3,20.2,00.0,30.2,23.0,10.8,0000.0,0003.83,0002.08,0001.89
2022-12-31 02:47:00,,0815.2,5.02,0.00,21.4,21.4,00.0,30.2,23.3,10.8,0000.0,0003.78,0001.99,0001.76
2022-12-31 02:48:00,,0815.3,5.01,0.00,21.5,22.5,00.0,30.2,23.6,10.7,0000.0,0003.60,0001.87,0001.63
2022-12-31 02:49:00,,0815.4,4.95,0.00,21.7,22.4,00.0,30.3,23.7,10.6,0000.0,0003.05,0001.77,0001.53
2022-12-31 02:50:00,,0815.2,5.02,0.00,21.7,21.9,00.0,30.3,23.6,10.4,0000.0,0002.40,0001.69,0001.44
2022-12-31 02:51:00,,0815.2,5.03,0.00,21.7,21.5,00.0,30.4,23.6,10.4,0000.0,0002.25,0001.58,0001.38
2022-12-31 02:52:00,,0815.4,4.99,0.00,21.7,21.2,00.0,30.4,23.5,10.3,0000.0,0002.19,0001.52,0001.30
2022-12-31 02:53:00,,0815.1,4.97,0.00,21.7,21.0,00.0,30.4,23.5,10.3,0000.0,0002.13,0001.47,0001.26
2022-12-31 02:54:00,,0815.1,4.99,0.00,21.7,20.8,00.0,30.5,23.5,10.2,0000.0,0002.12,0001.46,0001.25
2022-12-31 02:55:00,,0815.2,4.98,0.00,21.7,20.6,00.0,30.5,23.4,10.2,0000.0,0002.06,0001.43,0001.23
2022-12-31 02:56:00,,0815.3,5.00,0.00,21.7,20.4,00.0,30.5,23.3,10.2,0000.0,0001.98,0001.38,0001.19
2022-12-31 02:57:00,,0815.2,5.03,0.00,21.7,20.2,00.0,30.5,23.2,10.2,0000.0,0001.89,0001.31,0001.13
2022-12-31 02:58:00,,0815.2,5.00,0.00,21.6,20.1,00.0,30.5,23.2,10.4,0000.0,0001.71,0001.21,0001.08
2022-12-31 02:59:00,,0815.2,4.98,0.00,21.6,20.0,00.0,30.5,23.1,10.5,0000.0,0001.62,0001.15,0001.03
